Back to catalog

STARLINK-33559

AliveCommunicationsVLEO
NORAD 62107·PAYLOAD·🇺🇸 United States

Launched Nov 25, 2024 from Cape Canaveral Space Force Station

Loading…

Next Passes (next 24 hours)

TLE

FreshSource: CelesTrak SupGP

Epoch: Sep 14, 2026, 23:01 UTC

1 62107C 24220V   26257.95951389 -.00008223  00000+0 -29782-3 0  2571
2 62107  43.0028 216.7345 0001213 264.3995 199.5708 15.27583886    11

Track STARLINK-33559 in real time with AllMySat

Download on the App Store